Miscellaneous Local Product
Issued by NWS Hastings, NE

Home | Current Version | Previous Version | Text Only | Print | Product List | Glossary Off
Versions: 1 2 3 4 5 6 7 8 9 10 11 12 13 14 15 16 17 18 19 20 21 22 23 24 25 26 27 28 29 30 31 32 33 34 35 36 37 38 39 40 41 42 43 44 45 46 47 48 49 50

000
AXUS43 KGID 261802
MISGRI

GID CWA HOURLY WEATHER ROUNDUP
NATIONAL WEATHER SERVICE HASTINGS NE
1200 PM CST FRI DEC 26 2014

NOTE: "FAIR" INDICATES FEW OR NO CLOUDS BELOW 12,000 FEET WITH NO
SIGNIFICANT WEATHER AND/OR OBSTRUCTIONS TO VISIBILITY.

...SOUTH CENTRAL NEBRASKA...

CITY           SKY/WX    TMP DP  RH WIND       PRES   REMARKS
GRAND ISLAND   CLOUDY    28  22  78 N15G25    30.02F WCI  16
HASTINGS       CLOUDY    28  22  78 N16       30.01R WCI  16
KEARNEY        CLOUDY    28  19  69 NW22      30.00F WCI  15
ORD            CLOUDY    26  20  77 N15       30.03S WCI  14
YORK           CLOUDY    28  27  93 N17G24    30.01F WCI  16
AURORA         CLOUDY    29  25  85 N16       30.01F WCI  17
LEXINGTON      CLOUDY    28  21  76 N16       30.03F WCI  15
HOLDREGE       CLOUDY    28  22  81 N20       30.00F WCI  14
HEBRON         CLOUDY    31  27  84 N13       29.98F WCI  21

...NEBRASKA PANHANDLE...

CITY           SKY/WX    TMP DP  RH WIND       PRES   REMARKS
CHADRON        CLOUDY    21  16  81 NE8       30.09F WCI  11
ALLIANCE       CLOUDY    18  14  84 NE16      30.03F WCI   3
SCOTTSBLUFF    LGT SNOW  20  16  84 NE5       30.05F VSB 3/4 WCI  13
SIDNEY         LGT SNOW  18  13  80 N12       30.01S WCI   5

...WESTERN AND NORTH CENTRAL NEBRASKA...

CITY           SKY/WX    TMP DP  RH WIND       PRES   REMARKS
VALENTINE      LGT SNOW  22  18  85 N12       30.09S FOG     WCI  10
AINSWORTH      CLOUDY    23  20  88 N16       30.06F WCI  10
ONEILL         CLOUDY    25  23  94 N16       30.06F WCI  12
BROKEN BOW     CLOUDY    26  20  77 N15G25    30.02R WCI  14
IMPERIAL       SNOW      22  18  85 N15       30.02F VSB 1/2 WCI   9
NORTH PLATTE   LGT SNOW  24  19  81 N14       30.05R VSB 1   WCI  12
MCCOOK         CLOUDY    26  20  77 N18       30.02F WCI  13

...EASTERN NEBRASKA...

CITY           SKY/WX    TMP DP  RH WIND       PRES   REMARKS
NORFOLK        CLOUDY    29  24  82 N20G28    29.99F WCI  16
SO SIOUX CITY  CLOUDY    32  27  81 N14       30.02F WCI  22
TEKAMAH        CLOUDY    33  29  85 N16G25    29.99F WCI  23
COLUMBUS       CLOUDY    28  21  74 N14       30.01F WCI  17
ALBION         PTSUNNY   29  22  73 N20G26    30.01F WCI  17
OMAHA EPPLEY   CLOUDY    33  31  92 N13       30.01S WCI  24
OFFUTT AFB     CLOUDY    34  32  93 N10       29.99R WCI  26
MILLARD        CLOUDY    33  30  88 N8G16     30.00R WCI  26
LINCOLN        CLOUDY    32  28  85 N16       30.01F WCI  21
NEBRASKA CITY  CLOUDY    35  33  94 N16       29.96F FOG     WCI  25
BEATRICE       CLOUDY    32  30  92 N14       29.98F WCI  22
FALLS CITY     CLOUDY    35  31  85 NE12      29.96F WCI  27

...NORTHERN KANSAS...

CITY           SKY/WX    TMP DP  RH WIND       PRES   REMARKS
GOODLAND       LGT SNOW  23  20  88 N15       29.97F FOG     WCI  10
HILL CITY      CLOUDY    29  21  72 N14       30.02S WCI  18
NORTON         CLOUDY    28  19  69 N14       30.00F WCI  17
PHILLIPSBURG   CLOUDY    32  25  74 N13       30.01F WCI  22
SMITH CENTER   CLOUDY    28  23  80 N14G22    30.00S WCI  17
BELOIT         CLOUDY    30  27  86 N18       29.96F WCI  18
HAYS           CLOUDY    28  18  64 N17       29.99F WCI  16
RUSSELL        CLOUDY    30  25  81 N12       29.98R WCI  20
CONCORDIA      CLOUDY    31  28  89 N16       29.95F WCI  20
SALINA         CLOUDY    34  29  82 N14       29.99R WCI  25
TOPEKA         CLOUDY    38  33  82 N6        29.96F WCI  33



USA.gov is the U.S. government's official web portal to all federal, state and local government web resources and services.